TimeCST,TemperatureF,Dew PointF,Humidity,Sea Level PressureIn,VisibilityMPH,Wind Direction,Wind SpeedMPH,Gust SpeedMPH,PrecipitationIn,Events,Conditions,WindDirDegrees,DateUTC
12:15 AM,31.8,25.9,79,30.03,10.0,Calm,Calm,-,N/A,,Overcast,0,2014-02-16 06:15:00
12:35 AM,31.8,25.7,78,30.02,10.0,SSW,3.5,-,N/A,,Overcast,200,2014-02-16 06:35:00
12:55 AM,31.6,25.7,79,30.03,10.0,SSW,3.5,-,N/A,,Overcast,210,2014-02-16 06:55:00
1:15 AM,32.0,25.9,78,30.03,10.0,WSW,4.6,-,N/A,,Overcast,240,2014-02-16 07:15:00
1:35 AM,31.3,26.8,83,30.03,10.0,WSW,3.5,-,N/A,,Overcast,250,2014-02-16 07:35:00
1:55 AM,31.5,26.6,82,30.02,10.0,Calm,Calm,-,N/A,,Overcast,0,2014-02-16 07:55:00
2:15 AM,31.3,25.7,80,30.02,10.0,Calm,Calm,-,N/A,,Scattered Clouds,0,2014-02-16 08:15:00
2:35 AM,30.6,25.3,81,30.02,10.0,Calm,Calm,-,N/A,,Clear,0,2014-02-16 08:35:00
2:55 AM,29.8,25.7,85,30.02,10.0,Calm,Calm,-,N/A,,Clear,0,2014-02-16 08:55:00
3:15 AM,29.1,25.0,85,30.02,10.0,SSW,3.5,-,N/A,,Clear,210,2014-02-16 09:15:00
3:35 AM,27.5,24.1,87,30.01,10.0,SW,4.6,-,N/A,,Clear,220,2014-02-16 09:35:00
3:55 AM,28.4,24.1,84,30.01,10.0,Calm,Calm,-,N/A,,Clear,0,2014-02-16 09:55:00
4:15 AM,29.5,24.4,81,30.01,10.0,Calm,Calm,-,N/A,,Clear,0,2014-02-16 10:15:00
4:35 AM,29.7,24.3,80,30.01,10.0,Calm,Calm,-,N/A,,Clear,0,2014-02-16 10:35:00
4:55 AM,29.5,23.9,80,30.02,10.0,WSW,4.6,-,N/A,,Clear,250,2014-02-16 10:55:00
5:15 AM,29.1,24.3,82,30.02,10.0,West,5.8,-,N/A,,Clear,260,2014-02-16 11:15:00
5:35 AM,30.2,24.4,79,30.03,10.0,West,6.9,-,N/A,,Clear,260,2014-02-16 11:35:00
5:55 AM,30.2,24.6,80,30.03,10.0,West,6.9,-,N/A,,Clear,260,2014-02-16 11:55:00
6:15 AM,30.0,24.6,80,30.04,10.0,West,5.8,-,N/A,,Clear,260,2014-02-16 12:15:00
6:35 AM,27.1,23.0,84,30.04,10.0,West,4.6,-,N/A,,Clear,260,2014-02-16 12:35:00
6:55 AM,29.8,24.8,81,30.05,10.0,West,3.5,-,N/A,,Clear,270,2014-02-16 12:55:00
7:15 AM,30.2,25.0,81,30.06,10.0,WNW,3.5,-,N/A,,Clear,290,2014-02-16 13:15:00
7:35 AM,31.8,26.1,79,30.07,10.0,Calm,Calm,-,N/A,,Clear,0,2014-02-16 13:35:00
7:55 AM,32.4,27.0,80,30.08,10.0,NW,5.8,-,N/A,,Clear,310,2014-02-16 13:55:00
8:15 AM,34.7,27.7,76,30.08,10.0,NNW,9.2,-,N/A,,Clear,340,2014-02-16 14:15:00
8:35 AM,35.1,28.0,76,30.09,10.0,NNW,6.9,-,N/A,,Clear,330,2014-02-16 14:35:00
8:55 AM,36.1,27.9,72,30.11,10.0,NNW,17.3,28.8,N/A,,Clear,340,2014-02-16 14:55:00
9:15 AM,36.1,27.3,70,30.12,10.0,North,11.5,-,N/A,,Clear,350,2014-02-16 15:15:00
9:35 AM,36.5,27.9,71,30.14,10.0,North,11.5,-,N/A,,Clear,360,2014-02-16 15:35:00
9:55 AM,36.1,28.2,73,30.15,10.0,North,9.2,-,N/A,,Clear,10,2014-02-16 15:55:00
10:15 AM,36.1,28.0,72,30.16,10.0,North,3.5,-,N/A,,Clear,10,2014-02-16 16:15:00
10:35 AM,36.5,27.9,71,30.17,10.0,North,10.4,-,N/A,,Clear,360,2014-02-16 16:35:00
10:55 AM,36.5,28.6,73,30.17,10.0,North,8.1,-,N/A,,Clear,10,2014-02-16 16:55:00
11:15 AM,36.5,28.8,74,30.18,10.0,North,6.9,-,N/A,,Clear,10,2014-02-16 17:15:00
11:35 AM,37.4,28.4,70,30.18,10.0,NNE,4.6,-,N/A,,Clear,30,2014-02-16 17:35:00
11:55 AM,38.1,28.4,68,30.18,10.0,NNE,4.6,-,N/A,,Clear,30,2014-02-16 17:55:00
12:15 PM,38.5,29.1,69,30.17,10.0,NNE,6.9,-,N/A,,Clear,30,2014-02-16 18:15:00
12:35 PM,38.8,29.5,69,30.17,10.0,NE,6.9,-,N/A,,Mostly Cloudy,40,2014-02-16 18:35:00
12:55 PM,39.2,29.3,68,30.17,10.0,NNE,9.2,-,N/A,,Mostly Cloudy,30,2014-02-16 18:55:00
1:15 PM,38.3,30.2,73,30.16,10.0,North,12.7,16.1,N/A,,Mostly Cloudy,360,2014-02-16 19:15:00
1:35 PM,37.8,30.7,76,30.17,10.0,North,9.2,-,N/A,,Overcast,10,2014-02-16 19:35:00
1:55 PM,37.8,30.0,74,30.19,10.0,North,10.4,-,N/A,,Overcast,360,2014-02-16 19:55:00
2:15 PM,37.0,29.7,75,30.19,10.0,NNW,8.1,-,N/A,,Overcast,340,2014-02-16 20:15:00
2:35 PM,36.3,29.5,76,30.19,10.0,NNW,8.1,-,N/A,,Overcast,340,2014-02-16 20:35:00
2:55 PM,35.8,29.7,78,30.20,10.0,NNW,6.9,-,N/A,,Overcast,340,2014-02-16 20:55:00
3:15 PM,35.4,29.3,78,30.21,7.0,North,8.1,-,N/A,,Overcast,350,2014-02-16 21:15:00
3:35 PM,35.6,28.9,77,30.21,10.0,NNW,4.6,-,N/A,,Overcast,330,2014-02-16 21:35:00
3:55 PM,34.7,29.7,82,30.22,10.0,North,8.1,-,N/A,,Overcast,360,2014-02-16 21:55:00
4:15 PM,34.3,29.5,82,30.22,7.0,North,6.9,-,N/A,,Overcast,360,2014-02-16 22:15:00
4:35 PM,34.0,29.3,83,30.23,10.0,North,6.9,-,N/A,,Overcast,360,2014-02-16 22:35:00
4:55 PM,34.0,28.8,81,30.23,10.0,North,8.1,-,N/A,,Overcast,350,2014-02-16 22:55:00
5:15 PM,33.8,28.4,81,30.23,10.0,North,5.8,-,N/A,,Overcast,10,2014-02-16 23:15:00
5:35 PM,33.3,28.4,82,30.24,10.0,NNE,6.9,-,N/A,,Overcast,20,2014-02-16 23:35:00
5:55 PM,33.1,28.4,83,30.24,10.0,NNE,5.8,-,N/A,,Overcast,30,2014-02-16 23:55:00
6:15 PM,32.7,28.0,83,30.24,10.0,NNE,3.5,-,N/A,,Mostly Cloudy,20,2014-02-17 00:15:00
6:35 PM,31.8,28.6,88,30.25,7.0,North,4.6,-,N/A,,Clear,10,2014-02-17 00:35:00
6:55 PM,31.3,28.4,89,30.26,7.0,North,4.6,-,N/A,,Clear,10,2014-02-17 00:55:00
7:15 PM,30.9,27.7,88,30.26,7.0,NNE,5.8,-,N/A,,Clear,30,2014-02-17 01:15:00
7:35 PM,31.1,26.6,83,30.25,7.0,NNE,6.9,-,N/A,,Clear,30,2014-02-17 01:35:00
7:55 PM,30.7,26.4,84,30.24,7.0,NE,6.9,-,N/A,,Clear,40,2014-02-17 01:55:00
8:15 PM,30.2,26.4,86,30.25,7.0,NNE,3.5,-,N/A,,Clear,30,2014-02-17 02:15:00
8:35 PM,29.5,26.4,88,30.26,7.0,NNE,5.8,-,N/A,,Clear,30,2014-02-17 02:35:00
8:55 PM,29.3,26.4,89,30.26,7.0,NE,4.6,-,N/A,,Clear,40,2014-02-17 02:55:00
9:15 PM,29.1,26.1,88,30.25,7.0,NE,5.8,-,N/A,,Clear,40,2014-02-17 03:15:00
9:35 PM,28.9,25.7,88,30.25,7.0,NE,4.6,-,N/A,,Clear,40,2014-02-17 03:35:00
9:55 PM,28.8,25.3,87,30.25,7.0,NE,5.8,-,N/A,,Clear,40,2014-02-17 03:55:00
10:15 PM,28.8,24.8,85,30.24,7.0,NE,5.8,-,N/A,,Clear,50,2014-02-17 04:15:00
10:35 PM,28.4,24.8,86,30.23,7.0,NE,5.8,-,N/A,,Clear,40,2014-02-17 04:35:00
10:55 PM,27.7,24.6,88,30.22,7.0,NE,5.8,-,N/A,,Clear,50,2014-02-17 04:55:00
11:15 PM,27.3,24.4,89,30.22,7.0,ENE,5.8,-,N/A,,Clear,60,2014-02-17 05:15:00
11:35 PM,27.5,24.4,88,30.22,7.0,NE,3.5,-,N/A,,Clear,50,2014-02-17 05:35:00
11:55 PM,27.5,24.6,89,30.22,7.0,NE,3.5,-,N/A,,Clear,50,2014-02-17 05:55:00